TimeEDT,TemperatureF,Dew PointF,Humidity,Sea Level PressureIn,VisibilityMPH,Wind Direction,Wind SpeedMPH,Gust SpeedMPH,PrecipitationIn,Events,Conditions,WindDirDegrees,DateUTC
12:52 AM,54.0,52.0,93,29.78,9.0,WNW,3.5,-,N/A,,Clear,290,2013-06-15 04:52:00
1:52 AM,53.1,52.0,96,29.79,6.0,West,3.5,-,N/A,,Clear,280,2013-06-15 05:52:00
2:52 AM,55.9,52.0,87,29.80,10.0,West,5.8,-,N/A,,Clear,280,2013-06-15 06:52:00
3:52 AM,54.0,51.1,90,29.82,9.0,WNW,4.6,-,N/A,,Clear,290,2013-06-15 07:52:00
4:52 AM,52.0,50.0,93,29.83,10.0,Calm,Calm,-,N/A,,Clear,0,2013-06-15 08:52:00
5:52 AM,51.1,50.0,96,29.86,8.0,Calm,Calm,-,N/A,,Clear,0,2013-06-15 09:52:00
6:52 AM,60.1,53.1,78,29.87,10.0,Calm,Calm,-,N/A,,Clear,0,2013-06-15 10:52:00
7:52 AM,64.9,50.0,58,29.89,10.0,NW,6.9,-,N/A,,Clear,320,2013-06-15 11:52:00
8:52 AM,69.1,48.0,47,29.91,10.0,NNW,8.1,-,N/A,,Clear,330,2013-06-15 12:52:00
9:52 AM,72.0,48.0,43,29.92,10.0,NW,6.9,-,N/A,,Clear,310,2013-06-15 13:52:00
10:52 AM,75.0,42.1,31,29.92,10.0,Variable,5.8,-,N/A,,Clear,0,2013-06-15 14:52:00
11:52 AM,75.9,42.1,30,29.91,10.0,North,-9999.0,-,N/A,,Clear,0,2013-06-15 15:52:00
12:52 PM,75.9,41.0,29,29.91,10.0,North,-9999.0,-,N/A,,Clear,0,2013-06-15 16:52:00
1:52 PM,78.1,43.0,29,29.91,10.0,NW,5.8,-,N/A,,Clear,320,2013-06-15 17:52:00
2:52 PM,79.0,43.0,28,29.89,10.0,WNW,5.8,-,N/A,,Clear,290,2013-06-15 18:52:00
3:52 PM,79.0,43.0,28,29.88,10.0,Variable,4.6,-,N/A,,Clear,0,2013-06-15 19:52:00
4:52 PM,79.0,44.1,29,29.88,10.0,Variable,5.8,-,N/A,,Clear,0,2013-06-15 20:52:00
5:52 PM,79.0,44.1,29,29.88,10.0,West,10.4,-,N/A,,Partly Cloudy,280,2013-06-15 21:52:00
6:52 PM,77.0,39.9,26,29.88,10.0,Variable,6.9,-,N/A,,Clear,0,2013-06-15 22:52:00
7:52 PM,70.0,48.0,46,29.90,10.0,Calm,Calm,-,N/A,,Clear,0,2013-06-15 23:52:00
8:52 PM,57.9,52.0,81,29.91,10.0,Calm,Calm,-,N/A,,Clear,0,2013-06-16 00:52:00
9:52 PM,55.9,51.1,84,29.94,10.0,Calm,Calm,-,N/A,,Clear,0,2013-06-16 01:52:00
10:52 PM,55.0,52.0,89,29.94,10.0,Calm,Calm,-,N/A,,Clear,0,2013-06-16 02:52:00
11:52 PM,62.1,53.1,72,29.95,10.0,SW,6.9,-,N/A,,Clear,220,2013-06-16 03:52:00